QPF
0.00 0.00 0.00 0.00 0.00 0.00 0.00 0.00 0.00 0.00 0.00 0.00 0.00 0.00 0.00 0.00 0.00 0.00 0.00 0.00 0.00 0.00 0.01 0.01 0.01 0.00 0.00 0.00 0.01 0.01 0.01 0.01 0.01 0.03 0.04 0.03 0.04 0.05 0.07 0.06 0.06 0.07 0.07 0.07
0.00 0.00 0.00 0.00 0.00 0.00 0.00 0.00 0.00 0.00 0.00 0.00 0.00 0.00 0.00 0.00 0.00 0.00 0.00 0.00 0.00 0.00 0.01 0.01 0.00 0.00 0.00 0.00 0.00 0.00 0.01 0.01 0.01 0.02 0.02 0.03 0.03 0.04 0.04 0.04 0.04 0.05 0.05 0.06
0.00 0.00 0.00 0.00 0.00 0.00 0.00 0.00 0.00 0.00 0.00 0.00 0.00 0.00 0.00 0.00 0.00 0.00 0.00 0.00 0.00 0.00 0.00 0.00 0.00 0.00 0.00 0.00 0.00 0.01 0.01 0.01 0.00 0.01 0.01 0.02 0.02 0.03 0.04 0.04 0.04 0.05 0.05 0.06
0.00 0.00 0.00 0.00 0.00 0.00 0.00 0.00 0.00 0.00 0.00 0.00 0.00 0.00 0.00 0.00 0.00 0.00 0.00 0.00 0.00 0.00 0.00 0.00 0.00 0.00 0.00 0.00 0.00 0.01 0.02 0.03 0.02 0.01 0.01 0.02 0.02 0.03 0.05 0.05 0.04 0.03 0.03 0.04
0.00 0.00 0.00 0.00 0.00 0.00 0.00 0.00 0.00 0.00 0.00 0.00 0.00 0.00 0.00 0.00 0.00 0.00 0.00 0.00 0.00 0.00 0.00 0.00 0.00 0.00 0.00 0.00 0.00 0.01 0.01 0.02 0.02 0.02 0.02 0.02 0.03 0.02 0.02 0.01 0.01 0.01 0.02 0.02
0.00 0.00 0.00 0.00 0.00 0.00 0.00 0.00 0.00 0.00 0.00 0.00 0.00 0.00 0.00 0.00 0.00 0.00 0.00 0.00 0.00 0.00 0.00 0.00 0.00 0.00 0.00 0.00 0.01 0.01 0.01 0.01 0.01 0.02 0.02 0.01 0.01 0.01 0.00 0.00 0.00 0.01 0.01 0.01
0.00 0.00 0.00 0.00 0.00 0.00 0.00 0.00 0.00 0.00 0.00 0.00 0.00 0.00 0.00 0.00 0.00 0.00 0.00 0.00 0.00 0.00 0.00 0.00 0.00 0.00 0.00 0.00 0.00 0.00 0.01 0.01 0.00 0.01 0.01 0.00 0.00 0.00 0.00 0.00 0.00 0.01 0.01 0.01
0.00 0.00 0.00 0.00 0.00 0.00 0.00 0.00 0.00 0.00 0.00 0.00 0.00 0.00 0.00 0.00 0.00 0.00 0.00 0.00 0.00 0.00 0.00 0.00 0.00 0.00 0.00 0.00 0.00 0.00 0.00 0.00 0.01 0.01 0.00 0.00 0.00 0.00 0.00 0.00 0.00 0.01 0.01 0.01
0.00 0.00 0.00 0.00 0.00 0.00 0.00 0.00 0.00 0.00 0.00 0.00 0.00 0.00 0.00 0.00 0.00 0.00 0.00 0.00 0.00 0.00 0.00 0.00 0.00 0.00 0.00 0.00 0.00 0.00 0.00 0.00 0.00 0.00 0.00 0.00 0.00 0.00 0.00 0.00 0.01 0.01 0.01 0.01
0.00 0.00 0.00 0.00 0.00 0.00 0.00 0.00 0.00 0.00 0.00 0.00 0.00 0.00 0.00 0.00 0.00 0.00 0.00 0.00 0.00 0.00 0.00 0.00 0.00 0.00 0.00 0.00 0.00 0.00 0.00 0.00 0.00 0.00 0.00 0.00 0.00 0.00 0.00 0.01 0.01 0.01 0.01 0.00
0.00 0.00 0.00 0.00 0.00 0.00 0.00 0.00 0.00 0.00 0.00 0.00 0.00 0.00 0.00 0.00 0.00 0.00 0.00 0.00 0.00 0.00 0.00 0.00 0.00 0.00 0.00 0.00 0.00 0.00 0.00 0.00 0.00 0.00 0.00 0.00 0.00 0.00 0.00 0.00 0.00 0.00 0.00 0.00
0.00 0.00 0.00 0.00 0.00 0.00 0.00 0.00 0.00 0.00 0.00 0.00 0.00 0.00 0.00 0.00 0.00 0.00 0.00 0.00 0.00 0.00 0.00 0.00 0.00 0.00 0.00 0.00 0.00 0.00 0.00 0.00 0.00 0.00 0.00 0.00 0.00 0.00 0.00 0.00 0.00 0.00 0.00 0.00
0.00 0.00 0.00 0.00 0.00 0.00 0.00 0.00 0.00 0.00 0.00 0.00 0.00 0.00 0.00 0.00 0.00 0.00 0.00 0.00 0.00 0.00 0.00 0.00 0.00 0.00 0.00 0.00 0.00 0.00 0.00 0.00 0.00 0.00 0.00 0.00 0.00 0.00 0.00 0.00 0.01 0.01 0.00 0.00
0.00 0.00 0.00 0.00 0.00 0.00 0.00 0.00 0.00 0.00 0.00 0.00 0.00 0.00 0.00 0.00 0.00 0.00 0.00 0.00 0.00 0.00 0.00 0.00 0.00 0.00 0.00 0.00 0.00 0.00 0.00 0.00 0.00 0.00 0.00 0.00 0.00 0.00 0.00 0.00 0.00 0.00 0.00 0.00
0.00 0.00 0.00 0.00 0.00 0.00 0.00 0.00 0.00 0.00 0.00 0.00 0.00 0.00 0.00 0.00 0.00 0.00 0.00 0.00 0.00 0.00 0.00 0.00 0.00 0.00 0.00 0.00 0.00 0.00 0.00 0.00 0.00 0.00 0.00 0.00 0.00 0.00 0.00 0.00 0.00 0.00 0.00 0.00
0.00 0.00 0.00 0.00 0.00 0.00 0.00 0.00 0.00 0.00 0.00 0.00 0.00 0.00 0.00 0.00 0.00 0.00 0.00 0.00 0.00 0.00 0.00 0.00 0.00 0.00 0.00 0.00 0.00 0.00 0.00 0.00 0.00 0.00 0.00 0.00 0.00 0.00 0.00 0.00 0.00 0.00 0.00 0.00
0.00 0.00 0.00 0.00 0.00 0.00 0.00 0.00 0.00 0.00 0.00 0.00 0.00 0.00 0.00 0.00 0.00 0.00 0.00 0.00 0.00 0.00 0.00 0.00 0.00 0.00 0.00 0.00 0.00 0.00 0.00 0.00 0.00 0.00 0.00 0.00 0.00 0.00 0.00 0.00 0.00 0.00 0.00 0.00
0.00 0.00 0.00 0.00 0.00 0.00 0.00 0.00 0.00 0.00 0.00 0.00 0.00 0.00 0.00 0.00 0.00 0.00 0.00 0.00 0.00 0.00 0.00 0.00 0.00 0.00 0.00 0.00 0.00 0.00 0.00 0.00 0.00 0.00 0.00 0.00 0.00 0.00 0.00 0.00 0.00 0.00 0.00 0.00
0.00 0.00 0.00 0.00 0.00 0.00 0.00 0.00 0.00 0.00 0.00 0.00 0.00 0.00 0.00 0.00 0.00 0.00 0.00 0.00 0.00 0.00 0.00 0.00 0.00 0.00 0.00 0.00 0.00 0.00 0.00 0.00 0.00 0.00 0.00 0.00 0.00 0.00 0.00 0.00 0.00 0.00 0.00 0.00
0.00 0.00 0.00 0.00 0.00 0.00 0.00 0.00 0.00 0.00 0.00 0.00 0.00 0.00 0.00 0.00 0.00 0.00 0.00 0.00 0.00 0.00 0.00 0.00 0.00 0.00 0.00 0.00 0.00 0.00 0.00 0.00 0.00 0.00 0.00 0.00 0.00 0.00 0.00 0.00 0.00 0.00 0.00 0.00
0.00 0.00 0.00 0.00 0.00 0.00 0.00 0.00 0.00 0.00 0.00 0.00 0.00 0.00 0.00 0.00 0.00 0.00 0.00 0.00 0.00 0.00 0.00 0.00 0.00 0.00 0.00 0.00 0.00 0.00 0.00 0.00 0.00 0.00 0.00 0.00 0.00 0.00 0.00 0.00 0.00 0.00 0.00 0.00
0.00 0.00 0.00 0.00 0.00 0.00 0.00 0.00 0.00 0.00 0.00 0.00 0.00 0.00 0.00 0.00 0.00 0.00 0.00 0.00 0.00 0.00 0.00 0.00 0.00 0.00 0.00 0.00 0.00 0.00 0.00 0.00 0.00 0.00 0.00 0.00 0.00 0.00 0.00 0.00 0.00 0.00 0.00 0.00
0.00 0.00 0.00 0.00 0.00 0.00 0.00 0.00 0.00 0.00 0.00 0.00 0.00 0.00 0.00 0.00 0.00 0.00 0.00 0.00 0.00 0.00 0.00 0.00 0.00 0.00 0.00 0.00 0.00 0.00 0.00 0.00 0.00 0.00 0.00 0.00 0.00 0.00 0.00 0.00 0.00 0.00 0.00 0.00
0.00 0.00 0.00 0.00 0.00 0.00 0.00 0.00 0.00 0.00 0.00 0.00 0.00 0.00 0.00 0.00 0.00 0.00 0.00 0.00 0.00 0.00 0.00 0.00 0.00 0.00 0.00 0.00 0.00 0.00 0.00 0.00 0.00 0.00 0.00 0.00 0.00 0.00 0.00 0.00 0.00 0.00 0.00 0.00
0.00 0.00 0.00 0.00 0.00 0.00 0.00 0.00 0.00 0.00 0.00 0.00 0.00 0.00 0.00 0.00 0.00 0.00 0.00 0.00 0.00 0.00 0.00 0.00 0.00 0.00 0.00 0.00 0.00 0.00 0.00 0.00 0.00 0.00 0.00 0.00 0.00 0.00 0.00 0.00 0.00 0.00 0.00 0.00
0.00 0.00 0.00 0.00 0.00 0.00 0.00 0.00 0.00 0.00 0.00 0.00 0.00 0.00 0.00 0.00 0.00 0.00 0.00 0.00 0.00 0.00 0.00 0.00 0.00 0.00 0.00 0.00 0.00 0.00 0.00 0.00 0.00 0.00 0.00 0.00 0.00 0.00 0.00 0.00 0.00 0.00 0.00 0.00
0.00 0.00 0.00 0.00 0.00 0.00 0.00 0.00 0.00 0.00 0.00 0.00 0.00 0.00 0.00 0.00 0.00 0.00 0.00 0.00 0.00 0.00 0.00 0.00 0.00 0.00 0.00 0.00 0.00 0.00 0.00 0.00 0.00 0.00 0.00 0.00 0.00 0.00 0.00 0.00 0.00 0.00 0.00 0.00
MSLP
1021.94 1022.26 1022.57 1022.85 1023.09 1023.28 1023.40 1023.45 1023.44 1023.37 1023.26 1023.12 1022.95 1022.77 1022.59 1022.40 1022.20 1021.98 1021.73 1021.45 1021.13 1020.79 1020.43 1020.06 1019.69 1019.35 1019.02 1018.71 1018.42 1018.13 1017.84 1017.52 1017.18 1016.80 1016.41 1016.01 1015.62 1015.25 1014.91 1014.60 1014.33 1014.10 1013.88 1013.68
1021.96 1022.21 1022.43 1022.61 1022.73 1022.81 1022.84 1022.83 1022.79 1022.73 1022.66 1022.58 1022.50 1022.41 1022.31 1022.19 1022.03 1021.84 1021.60 1021.31 1020.98 1020.63 1020.27 1019.92 1019.59 1019.29 1019.02 1018.78 1018.56 1018.34 1018.10 1017.84 1017.55 1017.21 1016.86 1016.49 1016.13 1015.78 1015.46 1015.17 1014.91 1014.67 1014.45 1014.24
1021.91 1022.07 1022.18 1022.23 1022.23 1022.20 1022.15 1022.09 1022.04 1022.00 1022.00 1022.01 1022.03 1022.04 1022.04 1021.99 1021.88 1021.71 1021.47 1021.17 1020.82 1020.45 1020.09 1019.75 1019.45 1019.20 1019.00 1018.84 1018.71 1018.57 1018.41 1018.22 1017.98 1017.69 1017.37 1017.02 1016.67 1016.32 1016.00 1015.70 1015.43 1015.17 1014.93 1014.69
1021.79 1021.84 1021.83 1021.75 1021.64 1021.50 1021.38 1021.29 1021.25 1021.27 1021.34 1021.45 1021.59 1021.71 1021.81 1021.83 1021.78 1021.63 1021.39 1021.07 1020.70 1020.31 1019.93 1019.60 1019.32 1019.12 1018.99 1018.91 1018.86 1018.81 1018.73 1018.61 1018.43 1018.18 1017.89 1017.56 1017.20 1016.85 1016.51 1016.19 1015.89 1015.60 1015.33 1015.06
1021.58 1021.52 1021.39 1021.20 1020.98 1020.77 1020.60 1020.50 1020.49 1020.56 1020.72 1020.93 1021.19 1021.42 1021.61 1021.72 1021.72 1021.60 1021.37 1021.04 1020.65 1020.24 1019.85 1019.52 1019.27 1019.10 1019.02 1019.01 1019.03 1019.05 1019.04 1018.98 1018.85 1018.65 1018.38 1018.06 1017.71 1017.35 1016.99 1016.64 1016.32 1016.00 1015.70 1015.40
1021.25 1021.09 1020.86 1020.58 1020.29 1020.03 1019.84 1019.75 1019.77 1019.90 1020.14 1020.46 1020.82 1021.16 1021.44 1021.63 1021.69 1021.61 1021.40 1021.08 1020.68 1020.27 1019.88 1019.55 1019.30 1019.16 1019.11 1019.13 1019.20 1019.27 1019.31 1019.30 1019.21 1019.04 1018.80 1018.50 1018.16 1017.80 1017.44 1017.09 1016.75 1016.41 1016.09 1015.76
1020.76 1020.53 1020.23 1019.90 1019.58 1019.30 1019.11 1019.04 1019.10 1019.30 1019.61 1020.01 1020.45 1020.88 1021.25 1021.51 1021.63 1021.60 1021.43 1021.14 1020.77 1020.37 1019.99 1019.67 1019.43 1019.30 1019.26 1019.30 1019.38 1019.47 1019.54 1019.55 1019.49 1019.35 1019.14 1018.87 1018.55 1018.22 1017.88 1017.54 1017.20 1016.88 1016.55 1016.22
1020.09 1019.82 1019.50 1019.16 1018.84 1018.58 1018.42 1018.39 1018.50 1018.74 1019.11 1019.57 1020.07 1020.56 1020.99 1021.31 1021.50 1021.54 1021.43 1021.19 1020.87 1020.51 1020.16 1019.86 1019.63 1019.50 1019.45 1019.48 1019.56 1019.65 1019.71 1019.73 1019.69 1019.58 1019.40 1019.16 1018.89 1018.60 1018.30 1018.00 1017.71 1017.41 1017.11 1016.80
1019.24 1018.96 1018.66 1018.36 1018.09 1017.89 1017.78 1017.80 1017.95 1018.23 1018.63 1019.12 1019.65 1020.17 1020.64 1021.02 1021.26 1021.37 1021.33 1021.17 1020.93 1020.63 1020.33 1020.06 1019.86 1019.72 1019.67 1019.68 1019.73 1019.79 1019.84 1019.85 1019.82 1019.72 1019.58 1019.40 1019.18 1018.96 1018.72 1018.49 1018.25 1018.01 1017.75 1017.48
1018.23 1018.00 1017.76 1017.54 1017.35 1017.23 1017.20 1017.28 1017.47 1017.78 1018.19 1018.68 1019.20 1019.73 1020.21 1020.62 1020.91 1021.08 1021.12 1021.05 1020.89 1020.68 1020.44 1020.23 1020.05 1019.93 1019.87 1019.85 1019.87 1019.90 1019.92 1019.92 1019.88 1019.81 1019.70 1019.57 1019.43 1019.27 1019.12 1018.96 1018.80 1018.63 1018.44 1018.21
1017.14 1016.98 1016.83 1016.72 1016.65 1016.65 1016.71 1016.86 1017.10 1017.42 1017.82 1018.28 1018.78 1019.28 1019.74 1020.15 1020.47 1020.68 1020.80 1020.81 1020.74 1020.62 1020.47 1020.32 1020.18 1020.08 1020.01 1019.98 1019.97 1019.97 1019.96 1019.95 1019.91 1019.85 1019.78 1019.70 1019.62 1019.54 1019.47 1019.39 1019.31 1019.21 1019.08 1018.91
1016.03 1015.96 1015.94 1015.96 1016.03 1016.15 1016.32 1016.54 1016.82 1017.16 1017.55 1017.97 1018.42 1018.86 1019.29 1019.67 1019.99 1020.23 1020.39 1020.48 1020.49 1020.45 1020.38 1020.29 1020.21 1020.13 1020.08 1020.04 1020.01 1019.99 1019.96 1019.93 1019.90 1019.86 1019.82 1019.78 1019.75 1019.74 1019.73 1019.73 1019.72 1019.69 1019.62 1019.51
1014.98 1015.00 1015.10 1015.26 1015.47 1015.72 1016.00 1016.32 1016.65 1017.00 1017.37 1017.75 1018.14 1018.53 1018.89 1019.23 1019.53 1019.77 1019.96 1020.09 1020.16 1020.19 1020.19 1020.16 1020.12 1020.08 1020.04 1020.01 1019.97 1019.94 1019.91 1019.88 1019.85 1019.82 1019.80 1019.80 1019.82 1019.85 1019.89 1019.94 1019.98 1020.00 1019.98 1019.92
1014.02 1014.13 1014.33 1014.62 1014.96 1015.33 1015.73 1016.12 1016.51 1016.89 1017.26 1017.61 1017.95 1018.28 1018.58 1018.87 1019.13 1019.35 1019.54 1019.69 1019.80 1019.88 1019.92 1019.94 1019.94 1019.93 1019.91 1019.89 1019.87 1019.84 1019.81 1019.78 1019.75 1019.74 1019.74 1019.76 1019.80 1019.85 1019.92 1020.00 1020.07 1020.12 1020.14 1020.11
1013.16 1013.33 1013.61 1013.99 1014.44 1014.92 1015.41 1015.89 1016.34 1016.76 1017.14 1017.48 1017.79 1018.08 1018.33 1018.57 1018.79 1018.99 1019.16 1019.31 1019.43 1019.52 1019.60 1019.65 1019.68 1019.69 1019.70 1019.69 1019.68 1019.66 1019.64 1019.63 1019.61 1019.61 1019.62 1019.64 1019.69 1019.75 1019.82 1019.91 1019.98 1020.05 1020.08 1020.09
1012.41 1012.58 1012.90 1013.33 1013.84 1014.40 1014.97 1015.52 1016.04 1016.50 1016.92 1017.28 1017.58 1017.85 1018.08 1018.29 1018.48 1018.65 1018.80 1018.94 1019.06 1019.16 1019.24 1019.31 1019.36 1019.40 1019.42 1019.43 1019.44 1019.44 1019.43 1019.42 1019.42 1019.42 1019.43 1019.45 1019.49 1019.54 1019.60 1019.67 1019.73 1019.79 1019.84 1019.86
1011.74 1011.88 1012.17 1012.60 1013.13 1013.72 1014.33 1014.94 1015.51 1016.04 1016.50 1016.89 1017.23 1017.52 1017.76 1017.96 1018.14 1018.30 1018.44 1018.57 1018.68 1018.78 1018.87 1018.94 1019.00 1019.05 1019.09 1019.12 1019.15 1019.16 1019.17 1019.18 1019.18 1019.18 1019.19 1019.20 1019.22 1019.24 1019.28 1019.32 1019.36 1019.40 1019.45 1019.48
1011.16 1011.21 1011.43 1011.80 1012.29 1012.87 1013.49 1014.12 1014.73 1015.31 1015.83 1016.28 1016.67 1017.00 1017.28 1017.52 1017.72 1017.89 1018.04 1018.17 1018.29 1018.39 1018.48 1018.56 1018.63 1018.69 1018.75 1018.79 1018.83 1018.86 1018.88 1018.90 1018.90 1018.90 1018.90 1018.89 1018.88 1018.88 1018.88 1018.88 1018.90 1018.92 1018.96 1019.00
1010.71 1010.63 1010.73 1010.99 1011.39 1011.90 1012.48 1013.10 1013.73 1014.34 1014.90 1015.42 1015.87 1016.27 1016.61 1016.90 1017.15 1017.36 1017.54 1017.70 1017.84 1017.96 1018.07 1018.16 1018.25 1018.32 1018.39 1018.45 1018.50 1018.54 1018.57 1018.59 1018.60 1018.59 1018.57 1018.54 1018.51 1018.47 1018.44 1018.41 1018.40 1018.40 1018.41 1018.45
1010.45 1010.21 1010.15 1010.26 1010.53 1010.93 1011.44 1012.01 1012.61 1013.22 1013.82 1014.38 1014.89 1015.35 1015.76 1016.12 1016.43 1016.70 1016.94 1017.14 1017.32 1017.48 1017.62 1017.74 1017.85 1017.95 1018.03 1018.10 1018.16 1018.21 1018.24 1018.26 1018.26 1018.25 1018.21 1018.16 1018.10 1018.04 1017.97 1017.92 1017.87 1017.85 1017.85 1017.88
1010.44 1010.04 1009.81 1009.75 1009.87 1010.13 1010.52 1011.00 1011.54 1012.12 1012.70 1013.28 1013.82 1014.33 1014.79 1015.21 1015.59 1015.92 1016.23 1016.49 1016.72 1016.93 1017.12 1017.28 1017.42 1017.54 1017.64 1017.73 1017.80 1017.85 1017.89 1017.90 1017.90 1017.87 1017.82 1017.76 1017.68 1017.59 1017.50 1017.42 1017.35 1017.30 1017.28 1017.30
1010.73 1010.19 1009.80 1009.58 1009.53 1009.65 1009.90 1010.26 1010.70 1011.20 1011.73 1012.27 1012.81 1013.32 1013.81 1014.27 1014.69 1015.08 1015.44 1015.76 1016.05 1016.32 1016.55 1016.75 1016.93 1017.08 1017.21 1017.31 1017.39 1017.45 1017.49 1017.50 1017.49 1017.45 1017.40 1017.32 1017.23 1017.12 1017.02 1016.92 1016.83 1016.76 1016.72 1016.72
1011.34 1010.69 1010.18 1009.83 1009.63 1009.60 1009.70 1009.92 1010.23 1010.61 1011.05 1011.51 1011.99 1012.47 1012.94 1013.39 1013.83 1014.24 1014.63 1015.00 1015.33 1015.64 1015.91 1016.15 1016.37 1016.55 1016.70 1016.82 1016.91 1016.97 1017.01 1017.02 1017.01 1016.97 1016.91 1016.83 1016.74 1016.63 1016.52 1016.41 1016.32 1016.23 1016.18 1016.15
1012.20 1011.51 1010.93 1010.48 1010.18 1010.01 1009.98 1010.05 1010.22 1010.46 1010.76 1011.10 1011.48 1011.87 1012.27 1012.68 1013.08 1013.48 1013.86 1014.24 1014.59 1014.92 1015.22 1015.48 1015.72 1015.92 1016.09 1016.23 1016.33 1016.40 1016.44 1016.45 1016.44 1016.41 1016.36 1016.29 1016.20 1016.11 1016.00 1015.90 1015.80 1015.71 1015.64 1015.59
1013.24 1012.56 1011.97 1011.49 1011.12 1010.86 1010.70 1010.64 1010.67 1010.76 1010.90 1011.10 1011.33 1011.59 1011.88 1012.19 1012.51 1012.85 1013.19 1013.53 1013.87 1014.19 1014.49 1014.77 1015.01 1015.22 1015.40 1015.54 1015.64 1015.72 1015.77 1015.79 1015.79 1015.77 1015.74 1015.68 1015.62 1015.54 1015.45 1015.36 1015.27 1015.18 1015.10 1015.04
1014.29 1013.69 1013.15 1012.69 1012.30 1012.00 1011.76 1011.60 1011.49 1011.44 1011.43 1011.46 1011.53 1011.64 1011.79 1011.96 1012.17 1012.41 1012.67 1012.94 1013.22 1013.51 1013.78 1014.03 1014.26 1014.47 1014.64 1014.77 1014.88 1014.96 1015.02 1015.05 1015.07 1015.07 1015.05 1015.03 1014.99 1014.94 1014.87 1014.80 1014.72 1014.65 1014.57 1014.51
1015.21 1014.73 1014.30 1013.90 1013.55 1013.25 1012.98 1012.75 1012.54 1012.37 1012.22 1012.11 1012.02 1011.97 1011.96 1011.99 1012.06 1012.17 1012.32 1012.50 1012.70 1012.92 1013.13 1013.34 1013.54 1013.71 1013.86 1013.99 1014.09 1014.17 1014.23 1014.28 1014.31 1014.33 1014.34 1014.34 1014.33 1014.31 1014.28 1014.23 1014.17 1014.11 1014.04 1013.98
Thickness
5716 5713 5711 5705 5699 5693 5691 5690 5685 5680 5673 5674 5672 5666 5662 5658 5654 5650 5648 5646 5644 5642 5640 5639 5637 5635 5633 5632 5632 5632 5632 5630 5630 5631 5632 5633 5634 5636 5637 5639 5641 5644 5647 5649
5713 5711 5709 5705 5703 5698 5693 5691 5687 5682 5679 5684 5678 5673 5667 5663 5657 5653 5650 5648 5646 5645 5643 5642 5640 5637 5635 5634 5634 5634 5632 5629 5628 5629 5629 5630 5631 5632 5633 5634 5636 5639 5641 5643
5718 5710 5708 5708 5715 5706 5702 5700 5695 5687 5690 5687 5679 5674 5671 5667 5661 5657 5654 5651 5649 5648 5647 5645 5644 5641 5639 5638 5636 5635 5632 5630 5628 5628 5628 5628 5629 5629 5630 5631 5632 5633 5635 5637
5719 5711 5702 5723 5725 5720 5711 5708 5706 5701 5697 5691 5686 5682 5678 5673 5667 5663 5659 5656 5654 5652 5650 5649 5647 5645 5644 5642 5639 5636 5633 5631 5628 5627 5626 5625 5626 5626 5628 5628 5628 5629 5630 5632
5721 5717 5720 5723 5723 5719 5712 5711 5716 5708 5701 5696 5691 5684 5681 5679 5673 5669 5664 5661 5658 5655 5654 5652 5650 5648 5646 5645 5641 5637 5632 5630 5628 5627 5625 5624 5623 5623 5624 5626 5625 5626 5626 5627
5718 5715 5718 5732 5734 5731 5720 5713 5725 5717 5708 5700 5692 5684 5686 5685 5678 5673 5669 5665 5662 5660 5659 5656 5652 5651 5649 5646 5642 5637 5633 5631 5629 5627 5625 5623 5622 5622 5622 5623 5623 5624 5623 5623
5720 5720 5733 5740 5733 5725 5711 5726 5732 5724 5716 5707 5700 5700 5696 5689 5682 5677 5672 5668 5665 5663 5661 5657 5655 5654 5651 5647 5642 5638 5636 5633 5630 5628 5626 5623 5622 5621 5621 5621 5621 5622 5620 5619
5725 5722 5733 5739 5731 5728 5737 5739 5734 5728 5723 5714 5709 5702 5696 5691 5684 5679 5675 5671 5668 5666 5663 5661 5658 5656 5653 5647 5644 5641 5638 5635 5632 5629 5627 5625 5622 5621 5620 5620 5620 5619 5618 5617
5741 5746 5750 5748 5748 5748 5746 5741 5735 5731 5726 5718 5710 5703 5698 5693 5689 5683 5679 5675 5671 5669 5666 5664 5661 5658 5655 5650 5647 5645 5641 5638 5634 5632 5628 5625 5623 5622 5621 5619 5618 5617 5616 5614
5742 5751 5752 5748 5749 5746 5744 5742 5739 5734 5728 5721 5713 5708 5701 5697 5692 5687 5682 5679 5675 5672 5670 5667 5664 5660 5657 5654 5651 5648 5644 5641 5637 5634 5631 5628 5624 5623 5620 5618 5616 5615 5613 5612
5746 5755 5751 5749 5749 5749 5744 5741 5737 5733 5728 5722 5716 5710 5705 5700 5696 5691 5686 5682 5678 5675 5673 5670 5667 5664 5661 5657 5655 5652 5648 5645 5641 5636 5633 5629 5626 5620 5619 5615 5612 5612 5612 5612
5756 5766 5762 5762 5761 5754 5745 5740 5737 5732 5726 5723 5718 5713 5708 5703 5699 5694 5690 5685 5682 5679 5676 5674 5671 5668 5665 5660 5658 5656 5652 5648 5644 5640 5635 5633 5630 5625 5616 5614 5611 5609 5608 5609
5771 5768 5766 5762 5761 5756 5750 5744 5739 5734 5729 5723 5719 5715 5710 5705 5700 5696 5692 5688 5685 5682 5679 5677 5674 5671 5668 5664 5661 5658 5655 5651 5647 5643 5640 5636 5633 5630 5626 5619 5614 5612 5610 5608
5763 5760 5757 5757 5756 5754 5751 5746 5741 5736 5731 5726 5720 5715 5710 5706 5702 5697 5694 5692 5688 5685 5682 5680 5676 5674 5671 5668 5664 5661 5658 5653 5649 5646 5643 5640 5637 5634 5630 5627 5624 5620 5614 5610
5758 5759 5761 5760 5756 5751 5748 5744 5737 5733 5729 5725 5720 5715 5710 5706 5702 5699 5697 5693 5689 5686 5684 5681 5679 5676 5673 5670 5667 5664 5661 5658 5654 5651 5647 5644 5640 5637 5634 5631 5628 5625 5623 5617
5757 5754 5752 5751 5750 5747 5743 5740 5737 5733 5729 5725 5719 5715 5712 5708 5705 5700 5697 5693 5689 5688 5686 5683 5680 5678 5674 5671 5669 5666 5663 5657 5654 5654 5651 5648 5644 5641 5638 5635 5632 5630 5627 5624
5751 5748 5747 5747 5747 5746 5744 5742 5740 5736 5731 5726 5721 5717 5712 5708 5703 5700 5696 5693 5691 5689 5687 5684 5682 5679 5675 5672 5670 5668 5666 5662 5654 5655 5654 5651 5648 5645 5642 5638 5636 5633 5630 5625
5758 5760 5758 5757 5752 5748 5744 5742 5740 5736 5732 5727 5722 5717 5711 5707 5704 5701 5698 5695 5691 5688 5687 5686 5683 5679 5676 5673 5671 5670 5668 5666 5662 5660 5657 5654 5651 5648 5645 5642 5640 5637 5634 5630
5749 5751 5753 5753 5752 5749 5746 5742 5738 5735 5731 5726 5720 5715 5712 5708 5706 5703 5700 5695 5691 5689 5689 5687 5681 5679 5677 5674 5670 5669 5669 5667 5664 5662 5659 5654 5651 5651 5649 5647 5644 5642 5639 5636
5738 5741 5743 5744 5744 5743 5742 5739 5735 5731 5728 5724 5718 5714 5710 5707 5705 5701 5697 5694 5693 5692 5691 5687 5682 5680 5678 5675 5669 5670 5669 5667 5666 5663 5661 5658 5656 5655 5653 5650 5648 5646 5643 5641
5725 5729 5732 5734 5735 5734 5734 5733 5730 5726 5724 5720 5716 5712 5709 5707 5703 5699 5695 5692 5693 5690 5687 5682 5681 5679 5677 5674 5668 5669 5668 5667 5665 5664 5662 5660 5659 5657 5655 5654 5651 5649 5647 5645
5711 5717 5721 5724 5725 5725 5726 5726 5724 5721 5718 5715 5711 5709 5706 5703 5700 5696 5694 5692 5693 5687 5684 5682 5681 5678 5675 5670 5670 5668 5666 5665 5664 5663 5662 5660 5659 5658 5657 5656 5654 5652 5651 5649
5694 5701 5707 5711 5714 5716 5716 5715 5715 5714 5711 5708 5706 5704 5702 5699 5697 5692 5690 5691 5688 5683 5681 5681 5678 5674 5669 5667 5668 5666 5665 5664 5663 5662 5661 5660 5659 5658 5657 5656 5655 5654 5652 5651
5671 5680 5687 5694 5698 5700 5701 5702 5702 5702 5701 5700 5699 5698 5696 5692 5690 5689 5689 5686 5683 5679 5677 5676 5672 5668 5664 5666 5666 5664 5663 5662 5661 5660 5659 5658 5658 5658 5657 5656 5655 5654 5653 5651
5644 5653 5661 5667 5673 5678 5683 5685 5685 5685 5686 5686 5687 5687 5686 5685 5683 5683 5680 5678 5675 5671 5672 5670 5666 5663 5662 5664 5663 5662 5660 5659 5658 5657 5656 5655 5655 5654 5655 5654 5653 5653 5652 5651
5613 5622 5629 5637 5643 5649 5656 5661 5665 5667 5669 5670 5671 5672 5671 5671 5670 5670 5669 5668 5667 5663 5663 5663 5662 5658 5659 5659 5658 5657 5656 5655 5653 5651 5651 5652 5652 5651 5651 5651 5651 5650 5650 5650
5583 5592 5600 5607 5614 5620 5628 5634 5640 5644 5648 5651 5653 5654 5655 5656 5656 5656 5656 5656 5656 5655 5655 5654 5654 5653 5653 5652 5651 5650 5650 5649 5649 5648 5648 5647 5647 5647 5647 5647 5647 5647 5646 5646